Location: N�rnberg
(49.4471°N, 11.0632°E)
Time: 12:36:44
(UTC+01:00)

Envisat - Visible Passes

Search period start: 17 February 2026 00:00
Search period end: 27 February 2026 00:00
Orbit: 761 x 763 km, 98.4° (Epoch: 16 February)

Date Brightness Start Highest point End Pass type
(mag) Time Alt. Az. Time Alt. Az. Time Alt. Az.
17 Feb 5.5 03:38:09 10° N 03:38:48 14° N 03:38:48 14° N visible
18 Feb 5.8 03:00:16 10° NNE 03:00:40 12° NNE 03:00:40 12° NNE visible
18 Feb 5.3 04:40:13 10° NNW 04:40:48 12° NNW 04:40:48 12° NNW visible
19 Feb 5.3 04:01:44 10° N 04:02:40 15° N 04:02:40 15° N visible
20 Feb 5.4 03:23:39 10° N 03:24:33 15° N 03:24:33 15° N visible
20 Feb 5.3 05:04:27 10° NNW 05:04:40 11° NNW 05:04:40 11° NNW visible
21 Feb 5.8 02:45:53 10° NNE 02:46:25 13° NNE 02:46:25 13° NNE visible
21 Feb 5.1 04:25:27 10° N 04:26:33 15° NNW 04:26:33 15° NNW visible
22 Feb 5.1 03:47:09 10° N 03:48:25 17° N 03:48:25 17° N visible
23 Feb 5.4 03:09:11 10° NNE 03:10:18 17° NNE 03:10:18 17° NNE visible
23 Feb 5.1 04:49:24 10° NNW 04:50:26 13° NNW 04:50:26 13° NNW visible
24 Feb 5.8 02:31:33 10° NNE 02:32:10 13° NNE 02:32:10 13° NNE visible
24 Feb 5.0 04:10:46 10° N 04:12:17 18° NNW 04:12:17 18° NNW visible
25 Feb 5.1 03:32:36 10° N 03:34:10 20° N 03:34:10 20° N visible
25 Feb 5.2 05:13:59 10° NNW 05:14:18 10° NW 05:14:18 10° NW visible
26 Feb 5.4 02:54:45 10° NNE 02:56:02 18° NNE 02:56:02 18° NNE visible
26 Feb 4.9 04:34:34 10° N 04:36:11 16° NNW 04:36:11 16° NNW visible
